Year,Month,Day,Hour,Minute,Value (Times are PST for temperature in C)
2012,03,11,00,00,5.60
2012,03,11,00,01,5.60
2012,03,11,00,02,5.60
2012,03,11,00,03,5.60
2012,03,11,00,04,5.60
2012,03,11,00,05,5.60
2012,03,11,00,06,5.60
2012,03,11,00,07,5.60
2012,03,11,00,08,5.60
2012,03,11,00,09,5.60
2012,03,11,00,10,5.60
2012,03,11,00,11,5.70
2012,03,11,00,12,5.70
2012,03,11,00,13,5.70
2012,03,11,00,14,5.70
2012,03,11,00,15,5.70
2012,03,11,00,16,5.70
2012,03,11,00,17,5.70
2012,03,11,00,18,5.70
2012,03,11,00,19,5.70
2012,03,11,00,20,5.70
2012,03,11,00,21,5.80
2012,03,11,00,22,5.80
2012,03,11,00,23,5.80
2012,03,11,00,24,5.80
2012,03,11,00,25,5.80
2012,03,11,00,26,5.80
2012,03,11,00,27,5.80
2012,03,11,00,28,5.80
2012,03,11,00,29,5.80
2012,03,11,00,30,5.80
2012,03,11,00,31,5.80
2012,03,11,00,32,5.80
2012,03,11,00,33,5.80
2012,03,11,00,34,5.80
2012,03,11,00,35,5.80
2012,03,11,00,36,5.80
2012,03,11,00,37,5.80
2012,03,11,00,38,5.80
2012,03,11,00,39,5.80
2012,03,11,00,40,5.80
2012,03,11,00,41,5.80
2012,03,11,00,42,5.80
2012,03,11,00,43,5.80
2012,03,11,00,44,5.80
2012,03,11,00,45,5.80
2012,03,11,00,46,5.80
2012,03,11,00,47,5.80
2012,03,11,00,48,5.80
2012,03,11,00,49,5.80
2012,03,11,00,50,5.80
2012,03,11,00,51,5.80
2012,03,11,00,52,5.80
2012,03,11,00,53,5.80
2012,03,11,00,54,5.80
2012,03,11,00,55,5.80
2012,03,11,00,56,5.80
2012,03,11,00,57,5.80
2012,03,11,00,58,5.80
2012,03,11,00,59,5.80
2012,03,11,01,00,5.70
2012,03,11,01,01,5.70
2012,03,11,01,02,5.70
2012,03,11,01,03,5.70
2012,03,11,01,04,5.70
2012,03,11,01,05,5.70
2012,03,11,01,06,5.70
2012,03,11,01,07,5.70
2012,03,11,01,08,5.70
2012,03,11,01,09,5.70
2012,03,11,01,10,5.60
2012,03,11,01,11,5.60
2012,03,11,01,12,5.60
2012,03,11,01,13,5.60
2012,03,11,01,14,5.60
2012,03,11,01,15,5.60
2012,03,11,01,16,5.70
2012,03,11,01,17,5.70
2012,03,11,01,18,5.70
2012,03,11,01,19,5.70
2012,03,11,01,20,5.70
2012,03,11,01,21,5.70
2012,03,11,01,22,5.70
2012,03,11,01,23,5.70
2012,03,11,01,24,5.70
2012,03,11,01,25,5.70
2012,03,11,01,26,5.70
2012,03,11,01,27,5.70
2012,03,11,01,28,5.60
2012,03,11,01,29,5.60
2012,03,11,01,30,5.60
2012,03,11,01,31,5.60
2012,03,11,01,32,5.60
2012,03,11,01,33,5.60
2012,03,11,01,34,5.60
2012,03,11,01,35,5.50
2012,03,11,01,36,5.50
2012,03,11,01,37,5.50
2012,03,11,01,38,5.50
2012,03,11,01,39,5.50
2012,03,11,01,40,5.50
2012,03,11,01,41,5.50
2012,03,11,01,42,5.50
2012,03,11,01,43,5.50
2012,03,11,01,44,5.50
2012,03,11,01,45,5.50
2012,03,11,01,46,5.50
2012,03,11,01,47,5.40
2012,03,11,01,48,5.40
2012,03,11,01,49,5.40
2012,03,11,01,50,5.40
2012,03,11,01,51,5.40
2012,03,11,01,52,5.40
2012,03,11,01,53,5.40
2012,03,11,01,54,5.40
2012,03,11,01,55,5.40
2012,03,11,01,56,5.30
2012,03,11,01,57,5.30
2012,03,11,01,58,5.30
2012,03,11,01,59,5.30
2012,03,11,03,00,5.30
2012,03,11,03,01,5.30
2012,03,11,03,02,5.20
2012,03,11,03,03,5.20
2012,03,11,03,04,5.10
2012,03,11,03,05,5.10
2012,03,11,03,06,5.10
2012,03,11,03,07,5.10
2012,03,11,03,08,5.10
2012,03,11,03,09,5.20
2012,03,11,03,10,5.20
2012,03,11,03,11,5.20
2012,03,11,03,12,5.20
2012,03,11,03,13,5.20
2012,03,11,03,14,5.20
2012,03,11,03,15,5.10
2012,03,11,03,16,5.10
2012,03,11,03,17,5.10
2012,03,11,03,18,5.10
2012,03,11,03,19,5.10
2012,03,11,03,20,5.10
2012,03,11,03,21,5.00
2012,03,11,03,22,4.90
2012,03,11,03,23,4.90
2012,03,11,03,24,4.90
2012,03,11,03,25,4.80
2012,03,11,03,26,4.80
2012,03,11,03,27,4.70
2012,03,11,03,28,4.70
2012,03,11,03,29,4.70
2012,03,11,03,30,4.70
2012,03,11,03,31,4.70
2012,03,11,03,32,4.70
2012,03,11,03,33,4.70
2012,03,11,03,34,4.70
2012,03,11,03,35,4.80
2012,03,11,03,36,4.80
2012,03,11,03,37,4.80
2012,03,11,03,38,4.80
2012,03,11,03,39,4.90
2012,03,11,03,40,4.90
2012,03,11,03,41,5.00
2012,03,11,03,42,5.00
2012,03,11,03,43,5.00
2012,03,11,03,44,5.00
2012,03,11,03,45,5.00
2012,03,11,03,46,4.90
2012,03,11,03,47,4.90
2012,03,11,03,48,4.90
2012,03,11,03,49,4.90
2012,03,11,03,50,4.90
2012,03,11,03,51,4.90
2012,03,11,03,52,4.80
2012,03,11,03,53,4.80
2012,03,11,03,54,4.80
2012,03,11,03,55,4.80
2012,03,11,03,56,4.80
2012,03,11,03,57,4.80
2012,03,11,03,58,4.80
2012,03,11,03,59,4.80
2012,03,11,04,00,4.90
2012,03,11,04,01,4.90
2012,03,11,04,02,4.90
2012,03,11,04,03,5.00
2012,03,11,04,04,5.10
2012,03,11,04,05,5.10
2012,03,11,04,06,5.10
2012,03,11,04,07,5.10
2012,03,11,04,08,5.10
2012,03,11,04,09,5.10
2012,03,11,04,10,5.10
2012,03,11,04,11,5.10
2012,03,11,04,12,5.00
2012,03,11,04,13,5.00
2012,03,11,04,14,5.00
2012,03,11,04,15,5.00
2012,03,11,04,16,4.90
2012,03,11,04,17,4.90
2012,03,11,04,18,4.90
2012,03,11,04,19,4.90
2012,03,11,04,20,5.00
2012,03,11,04,21,5.00
2012,03,11,04,22,5.00
2012,03,11,04,23,5.00
2012,03,11,04,24,5.10
2012,03,11,04,25,5.10
2012,03,11,04,26,5.10
2012,03,11,04,27,5.10
2012,03,11,04,28,5.00
2012,03,11,04,29,5.00
2012,03,11,04,30,5.00
2012,03,11,04,31,5.00
2012,03,11,04,32,4.90
2012,03,11,04,33,4.90
2012,03,11,04,34,4.90
2012,03,11,04,35,4.90
2012,03,11,04,36,4.90
2012,03,11,04,37,4.90
2012,03,11,04,38,4.80
2012,03,11,04,39,4.80
2012,03,11,04,40,4.80
2012,03,11,04,41,4.80
2012,03,11,04,42,4.80
2012,03,11,04,43,4.70
2012,03,11,04,44,4.70
2012,03,11,04,45,4.70
2012,03,11,04,46,4.70
2012,03,11,04,47,4.60
2012,03,11,04,48,4.60
2012,03,11,04,49,4.60
2012,03,11,04,50,4.60
2012,03,11,04,51,4.50
2012,03,11,04,52,4.50
2012,03,11,04,53,4.50
2012,03,11,04,54,4.50
2012,03,11,04,55,4.50
2012,03,11,04,56,4.50
2012,03,11,04,57,4.50
2012,03,11,04,58,4.50
2012,03,11,04,59,4.40
2012,03,11,05,00,4.40
2012,03,11,05,01,4.40
2012,03,11,05,02,4.40
2012,03,11,05,03,4.40
2012,03,11,05,04,4.30
2012,03,11,05,05,4.30
2012,03,11,05,06,4.30
2012,03,11,05,07,4.30
2012,03,11,05,08,4.30
2012,03,11,05,09,4.30
2012,03,11,05,10,4.30
2012,03,11,05,11,4.30
2012,03,11,05,12,4.30
2012,03,11,05,13,4.30
2012,03,11,05,14,4.30
2012,03,11,05,15,4.20
2012,03,11,05,16,4.10
2012,03,11,05,17,4.10
2012,03,11,05,18,4.00
2012,03,11,05,19,3.90
2012,03,11,05,20,3.90
2012,03,11,05,21,3.90
2012,03,11,05,22,3.90
2012,03,11,05,23,3.80
2012,03,11,05,24,3.80
2012,03,11,05,25,3.80
2012,03,11,05,26,3.80
2012,03,11,05,27,3.80
2012,03,11,05,28,3.80
2012,03,11,05,29,3.80
2012,03,11,05,30,3.80
2012,03,11,05,31,3.80
2012,03,11,05,32,3.80
2012,03,11,05,33,3.80
2012,03,11,05,34,3.70
2012,03,11,05,35,3.70
2012,03,11,05,36,3.70
2012,03,11,05,37,3.70
2012,03,11,05,38,3.70
2012,03,11,05,39,3.70
2012,03,11,05,40,3.60
2012,03,11,05,41,3.60
2012,03,11,05,42,3.50
2012,03,11,05,43,3.50
2012,03,11,05,44,3.50
2012,03,11,05,45,3.50
2012,03,11,05,46,3.50
2012,03,11,05,47,3.60
2012,03,11,05,48,3.60
2012,03,11,05,49,3.60
2012,03,11,05,50,3.50
2012,03,11,05,51,3.50
2012,03,11,05,52,3.40
2012,03,11,05,53,3.40
2012,03,11,05,54,3.40
2012,03,11,05,55,3.30
2012,03,11,05,56,3.20
2012,03,11,05,57,3.10
2012,03,11,05,58,3.00
2012,03,11,05,59,2.90
2012,03,11,06,00,2.90
2012,03,11,06,01,2.80
2012,03,11,06,02,2.70
2012,03,11,06,03,2.60
2012,03,11,06,04,2.60
2012,03,11,06,05,2.50
2012,03,11,06,06,2.50
2012,03,11,06,07,2.40
2012,03,11,06,08,2.40
2012,03,11,06,09,2.40
2012,03,11,06,10,2.40
2012,03,11,06,11,2.40
2012,03,11,06,12,2.40
2012,03,11,06,13,2.40
2012,03,11,06,14,2.40
2012,03,11,06,15,2.40
2012,03,11,06,16,2.40
2012,03,11,06,17,2.40
2012,03,11,06,18,2.40
2012,03,11,06,19,2.30
2012,03,11,06,20,2.30
2012,03,11,06,21,2.30
2012,03,11,06,22,2.40
2012,03,11,06,23,2.50
2012,03,11,06,24,2.60
2012,03,11,06,25,2.70
2012,03,11,06,26,2.80
2012,03,11,06,27,2.90
2012,03,11,06,28,3.00
2012,03,11,06,29,3.00
2012,03,11,06,30,3.10
2012,03,11,06,31,3.10
2012,03,11,06,32,3.10
2012,03,11,06,33,3.00
2012,03,11,06,34,3.00
2012,03,11,06,35,3.00
2012,03,11,06,36,2.90
2012,03,11,06,37,2.90
2012,03,11,06,38,2.90
2012,03,11,06,39,2.90
2012,03,11,06,40,3.00
2012,03,11,06,41,3.00
2012,03,11,06,42,2.90
2012,03,11,06,43,2.90
2012,03,11,06,44,2.80
2012,03,11,06,45,2.70
2012,03,11,06,46,2.60
2012,03,11,06,47,2.40
2012,03,11,06,48,2.30
2012,03,11,06,49,2.20
2012,03,11,06,50,2.10
2012,03,11,06,51,2.10
2012,03,11,06,52,2.10
2012,03,11,06,53,2.00
2012,03,11,06,54,2.00
2012,03,11,06,55,2.00
2012,03,11,06,56,1.90
2012,03,11,06,57,1.90
2012,03,11,06,58,1.90
2012,03,11,06,59,1.90
2012,03,11,07,00,1.80
2012,03,11,07,01,1.80
2012,03,11,07,02,1.80
2012,03,11,07,03,1.80
2012,03,11,07,04,1.80
2012,03,11,07,05,1.70
2012,03,11,07,06,1.70
2012,03,11,07,07,1.70
2012,03,11,07,08,1.70
2012,03,11,07,09,1.70
2012,03,11,07,10,1.70
2012,03,11,07,11,1.80
2012,03,11,07,12,1.80
2012,03,11,07,13,1.80
2012,03,11,07,14,1.70
2012,03,11,07,15,1.70
2012,03,11,07,16,1.70
2012,03,11,07,17,1.70
2012,03,11,07,18,1.70
2012,03,11,07,19,1.70
2012,03,11,07,20,1.80
2012,03,11,07,21,1.80
2012,03,11,07,22,1.80
2012,03,11,07,23,1.70
2012,03,11,07,24,1.70
2012,03,11,07,25,1.70
2012,03,11,07,26,1.70
2012,03,11,07,27,1.80
2012,03,11,07,28,1.80
2012,03,11,07,29,1.80
2012,03,11,07,30,1.80
2012,03,11,07,31,1.80
2012,03,11,07,32,1.80
2012,03,11,07,33,1.90
2012,03,11,07,34,2.10
2012,03,11,07,35,2.30
2012,03,11,07,36,2.50
2012,03,11,07,37,2.60
2012,03,11,07,38,2.70
2012,03,11,07,39,2.80
2012,03,11,07,40,2.80
2012,03,11,07,41,2.90
2012,03,11,07,42,2.90
2012,03,11,07,43,3.00
2012,03,11,07,44,3.00
2012,03,11,07,45,3.00
2012,03,11,07,46,3.00
2012,03,11,07,47,2.90
2012,03,11,07,48,2.90
2012,03,11,07,49,2.80
2012,03,11,07,50,2.80
2012,03,11,07,51,2.80
2012,03,11,07,52,2.80
2012,03,11,07,53,2.80
2012,03,11,07,54,2.90
2012,03,11,07,55,2.90
2012,03,11,07,56,2.90
2012,03,11,07,57,3.00
2012,03,11,07,58,3.10
2012,03,11,07,59,3.10
2012,03,11,08,00,3.20
2012,03,11,08,01,3.30
2012,03,11,08,02,3.40
2012,03,11,08,03,3.50
2012,03,11,08,04,3.70
2012,03,11,08,05,3.80
2012,03,11,08,06,4.00
2012,03,11,08,07,4.00
2012,03,11,08,08,4.10
2012,03,11,08,09,4.10
2012,03,11,08,10,4.10
2012,03,11,08,11,4.00
2012,03,11,08,12,4.00
2012,03,11,08,13,4.00
2012,03,11,08,14,3.90
2012,03,11,08,15,3.90
2012,03,11,08,16,3.80
2012,03,11,08,17,3.80
2012,03,11,08,18,3.80
2012,03,11,08,19,3.80
2012,03,11,08,20,3.80
2012,03,11,08,21,3.70
2012,03,11,08,22,3.70
2012,03,11,08,23,3.70
2012,03,11,08,24,3.70
2012,03,11,08,25,3.70
2012,03,11,08,26,3.70
2012,03,11,08,27,3.70
2012,03,11,08,28,3.70
2012,03,11,08,29,3.70
2012,03,11,08,30,3.70
2012,03,11,08,31,3.70
2012,03,11,08,32,3.70
2012,03,11,08,33,3.70
2012,03,11,08,34,3.70
2012,03,11,08,35,3.70
2012,03,11,08,36,3.70
2012,03,11,08,37,3.70
2012,03,11,08,38,3.80
2012,03,11,08,39,3.80
2012,03,11,08,40,3.80
2012,03,11,08,41,3.80
2012,03,11,08,42,3.90
2012,03,11,08,43,3.90
2012,03,11,08,44,3.90
2012,03,11,08,45,3.90
2012,03,11,08,46,3.90
2012,03,11,08,47,3.90
2012,03,11,08,48,3.80
2012,03,11,08,49,3.80
2012,03,11,08,50,3.80
2012,03,11,08,51,3.80
2012,03,11,08,52,3.80
2012,03,11,08,53,3.90
2012,03,11,08,54,4.10
2012,03,11,08,55,4.30
2012,03,11,08,56,4.30
2012,03,11,08,57,4.40
2012,03,11,08,58,4.40
2012,03,11,08,59,4.30
2012,03,11,09,00,4.20
2012,03,11,09,01,4.20
2012,03,11,09,02,4.20
2012,03,11,09,03,4.20
2012,03,11,09,04,4.20
2012,03,11,09,05,4.10
2012,03,11,09,06,4.10
2012,03,11,09,07,4.10
2012,03,11,09,08,4.10
2012,03,11,09,09,4.10
2012,03,11,09,10,4.10
2012,03,11,09,11,4.10
2012,03,11,09,12,4.10
2012,03,11,09,13,4.10
2012,03,11,09,14,4.10
2012,03,11,09,15,4.10
2012,03,11,09,16,4.10
2012,03,11,09,17,4.10
2012,03,11,09,18,4.10
2012,03,11,09,19,4.20
2012,03,11,09,20,4.20
2012,03,11,09,21,4.20
2012,03,11,09,22,4.20
2012,03,11,09,23,4.10
2012,03,11,09,24,4.20
2012,03,11,09,25,4.20
2012,03,11,09,26,4.20
2012,03,11,09,27,4.20
2012,03,11,09,28,4.20
2012,03,11,09,29,4.10
2012,03,11,09,30,4.10
2012,03,11,09,31,4.10
2012,03,11,09,32,4.10
2012,03,11,09,33,4.10
2012,03,11,09,34,4.20
2012,03,11,09,35,4.20
2012,03,11,09,36,4.20
2012,03,11,09,37,4.30
2012,03,11,09,38,4.30
2012,03,11,09,39,4.40
2012,03,11,09,40,4.40
2012,03,11,09,41,4.50
2012,03,11,09,42,4.70
2012,03,11,09,43,4.80
2012,03,11,09,44,4.80
2012,03,11,09,45,4.90
2012,03,11,09,46,5.00
2012,03,11,09,47,5.10
2012,03,11,09,48,5.20
2012,03,11,09,49,5.30
2012,03,11,09,50,5.30
2012,03,11,09,51,5.40
2012,03,11,09,52,5.50
2012,03,11,09,53,5.50
2012,03,11,09,54,5.60
2012,03,11,09,55,5.60
2012,03,11,09,56,5.70
2012,03,11,09,57,5.70
2012,03,11,09,58,5.70
2012,03,11,09,59,5.70
2012,03,11,10,00,5.70
2012,03,11,10,01,5.80
2012,03,11,10,02,5.80
2012,03,11,10,03,5.80
2012,03,11,10,04,5.80
2012,03,11,10,05,5.80
2012,03,11,10,06,5.80
2012,03,11,10,07,5.90
2012,03,11,10,08,5.90
2012,03,11,10,09,5.90
2012,03,11,10,10,5.80
2012,03,11,10,11,5.80
2012,03,11,10,12,5.80
2012,03,11,10,13,5.80
2012,03,11,10,14,5.80
2012,03,11,10,15,5.80
2012,03,11,10,16,5.80
2012,03,11,10,17,5.80
2012,03,11,10,18,5.80
2012,03,11,10,19,5.80
2012,03,11,10,20,5.80
2012,03,11,10,21,5.80
2012,03,11,10,22,5.90
2012,03,11,10,23,5.90
2012,03,11,10,24,6.00
2012,03,11,10,25,6.10
2012,03,11,10,26,6.10
2012,03,11,10,27,6.20
2012,03,11,10,28,6.30
2012,03,11,10,29,6.30
2012,03,11,10,30,6.40
2012,03,11,10,31,6.40
2012,03,11,10,32,6.40
2012,03,11,10,33,6.50
2012,03,11,10,34,6.50
2012,03,11,10,35,6.60
2012,03,11,10,36,6.60
2012,03,11,10,37,6.70
2012,03,11,10,38,6.70
2012,03,11,10,39,6.80
2012,03,11,10,40,6.80
2012,03,11,10,41,6.90
2012,03,11,10,42,7.00
2012,03,11,10,43,7.10
2012,03,11,10,44,7.10
2012,03,11,10,45,7.20
2012,03,11,10,46,7.10
2012,03,11,10,47,7.00
2012,03,11,10,48,6.80
2012,03,11,10,49,6.70
2012,03,11,10,50,6.60
2012,03,11,10,51,6.40
2012,03,11,10,52,6.30
2012,03,11,10,53,6.20
2012,03,11,10,54,6.20
2012,03,11,10,55,6.20
2012,03,11,10,56,6.20
2012,03,11,10,57,6.30
2012,03,11,10,58,6.30
2012,03,11,10,59,6.30
2012,03,11,11,00,6.40
2012,03,11,11,01,6.30
2012,03,11,11,02,6.30
2012,03,11,11,03,6.20
2012,03,11,11,04,6.10
2012,03,11,11,05,6.00
2012,03,11,11,06,5.90
2012,03,11,11,07,6.00
2012,03,11,11,08,6.00
2012,03,11,11,09,6.00
2012,03,11,11,10,6.10
2012,03,11,11,11,6.20
2012,03,11,11,12,6.20
2012,03,11,11,13,6.30
2012,03,11,11,14,6.30
2012,03,11,11,15,6.30
2012,03,11,11,16,6.30
2012,03,11,11,17,6.30
2012,03,11,11,18,6.20
2012,03,11,11,19,6.20
2012,03,11,11,20,6.10
2012,03,11,11,21,6.10
2012,03,11,11,22,6.10
2012,03,11,11,23,6.00
2012,03,11,11,24,6.00
2012,03,11,11,25,6.00
2012,03,11,11,26,6.00
2012,03,11,11,27,6.00
2012,03,11,11,28,6.10
2012,03,11,11,29,6.10
2012,03,11,11,30,6.10
2012,03,11,11,31,6.10
2012,03,11,11,32,6.20
2012,03,11,11,33,6.20
2012,03,11,11,34,6.30
2012,03,11,11,35,6.40
2012,03,11,11,36,6.40
2012,03,11,11,37,6.50
2012,03,11,11,38,6.60
2012,03,11,11,39,6.60
2012,03,11,11,40,6.70
2012,03,11,11,41,6.70
2012,03,11,11,42,6.80
2012,03,11,11,43,6.80
2012,03,11,11,44,6.90
2012,03,11,11,45,6.90
2012,03,11,11,46,6.90
2012,03,11,11,47,6.90
2012,03,11,11,48,6.90
2012,03,11,11,49,6.90
2012,03,11,11,50,6.90
2012,03,11,11,51,7.00
2012,03,11,11,52,7.00
2012,03,11,11,53,7.00
2012,03,11,11,54,7.10
2012,03,11,11,55,7.20
2012,03,11,11,56,7.30
2012,03,11,11,57,7.30
2012,03,11,11,58,7.40
2012,03,11,11,59,7.40
2012,03,11,12,00,7.50
2012,03,11,12,01,7.60
2012,03,11,12,02,7.70
2012,03,11,12,03,7.70
2012,03,11,12,04,7.80
2012,03,11,12,05,7.80
2012,03,11,12,06,7.80
2012,03,11,12,07,7.80
2012,03,11,12,08,7.80
2012,03,11,12,09,7.90
2012,03,11,12,10,7.90
2012,03,11,12,11,7.90
2012,03,11,12,12,8.00
2012,03,11,12,13,8.10
2012,03,11,12,14,8.20
2012,03,11,12,15,8.30
2012,03,11,12,16,8.30
2012,03,11,12,17,8.30
2012,03,11,12,18,8.20
2012,03,11,12,19,8.20
2012,03,11,12,20,8.10
2012,03,11,12,21,8.10
2012,03,11,12,22,8.00
2012,03,11,12,23,7.90
2012,03,11,12,24,7.90
2012,03,11,12,25,7.90
2012,03,11,12,26,8.00
2012,03,11,12,27,8.00
2012,03,11,12,28,8.10
2012,03,11,12,29,8.10
2012,03,11,12,30,8.10
2012,03,11,12,31,8.10
2012,03,11,12,32,8.00
2012,03,11,12,33,8.00
2012,03,11,12,34,7.90
2012,03,11,12,35,7.90
2012,03,11,12,36,7.90
2012,03,11,12,37,8.00
2012,03,11,12,38,8.10
2012,03,11,12,39,8.10
2012,03,11,12,40,8.10
2012,03,11,12,41,8.10
2012,03,11,12,42,8.20
2012,03,11,12,43,8.20
2012,03,11,12,44,8.30
2012,03,11,12,45,8.40
2012,03,11,12,46,8.50
2012,03,11,12,47,8.50
2012,03,11,12,48,8.40
2012,03,11,12,49,8.40
2012,03,11,12,50,8.40
2012,03,11,12,51,8.40
2012,03,11,12,52,8.50
2012,03,11,12,53,8.40
2012,03,11,12,54,8.20
2012,03,11,12,55,8.10
2012,03,11,12,56,8.00
2012,03,11,12,57,8.00
2012,03,11,12,58,7.90
2012,03,11,12,59,7.90
2012,03,11,13,00,7.90
2012,03,11,13,01,7.80
2012,03,11,13,02,7.80
2012,03,11,13,03,7.60
2012,03,11,13,04,7.20
2012,03,11,13,05,6.90
2012,03,11,13,06,6.60
2012,03,11,13,07,6.20
2012,03,11,13,08,5.80
2012,03,11,13,09,5.50
2012,03,11,13,10,5.20
2012,03,11,13,11,4.90
2012,03,11,13,12,4.60
2012,03,11,13,13,4.20
2012,03,11,13,14,4.00
2012,03,11,13,15,3.70
2012,03,11,13,16,3.50
2012,03,11,13,17,3.30
2012,03,11,13,18,3.20
2012,03,11,13,19,3.10
2012,03,11,13,20,2.90
2012,03,11,13,21,2.80
2012,03,11,13,22,2.80
2012,03,11,13,23,2.70
2012,03,11,13,24,2.70
2012,03,11,13,25,2.70
2012,03,11,13,26,2.70
2012,03,11,13,27,2.80
2012,03,11,13,28,2.80
2012,03,11,13,29,2.80
2012,03,11,13,30,2.90
2012,03,11,13,31,3.00
2012,03,11,13,32,3.00
2012,03,11,13,33,3.10
2012,03,11,13,34,3.10
2012,03,11,13,35,3.20
2012,03,11,13,36,3.30
2012,03,11,13,37,3.30
2012,03,11,13,38,3.40
2012,03,11,13,39,3.50
2012,03,11,13,40,3.50
2012,03,11,13,41,3.70
2012,03,11,13,42,3.80
2012,03,11,13,43,3.90
2012,03,11,13,44,4.00
2012,03,11,13,45,4.10
2012,03,11,13,46,4.20
2012,03,11,13,47,4.40
2012,03,11,13,48,4.50
2012,03,11,13,49,4.70
2012,03,11,13,50,4.80
2012,03,11,13,51,5.00
2012,03,11,13,52,5.10
2012,03,11,13,53,5.20
2012,03,11,13,54,5.40
2012,03,11,13,55,5.50
2012,03,11,13,56,5.60
2012,03,11,13,57,5.70
2012,03,11,13,58,5.80
2012,03,11,13,59,5.80
2012,03,11,14,00,5.90
2012,03,11,14,01,6.00
2012,03,11,14,02,6.10
2012,03,11,14,03,6.20
2012,03,11,14,04,6.20
2012,03,11,14,05,6.20
2012,03,11,14,06,6.20
2012,03,11,14,07,6.20
2012,03,11,14,08,6.10
2012,03,11,14,09,6.00
2012,03,11,14,10,5.80
2012,03,11,14,11,5.80
2012,03,11,14,12,5.70
2012,03,11,14,13,5.70
2012,03,11,14,14,5.70
2012,03,11,14,15,5.70
2012,03,11,14,16,5.70
2012,03,11,14,17,5.70
2012,03,11,14,18,5.80
2012,03,11,14,19,5.80
2012,03,11,14,20,6.00
2012,03,11,14,21,6.10
2012,03,11,14,22,6.10
2012,03,11,14,23,6.10
2012,03,11,14,24,6.10
2012,03,11,14,25,6.10
2012,03,11,14,26,6.70
2012,03,11,14,27,6.70
2012,03,11,14,28,6.70
2012,03,11,14,29,6.80
2012,03,11,14,30,6.80
2012,03,11,14,31,6.80
2012,03,11,14,32,6.80
2012,03,11,14,33,6.80
2012,03,11,14,34,6.80
2012,03,11,14,35,6.80
2012,03,11,14,36,6.80
2012,03,11,14,37,6.80
2012,03,11,14,38,6.90
2012,03,11,14,39,6.90
2012,03,11,14,40,6.90
2012,03,11,14,41,6.90
2012,03,11,14,42,6.90
2012,03,11,14,43,6.90
2012,03,11,14,44,6.90
2012,03,11,14,45,6.80
2012,03,11,14,46,6.70
2012,03,11,14,47,6.70
2012,03,11,14,48,6.70
2012,03,11,14,49,6.70
2012,03,11,14,50,6.70
2012,03,11,14,51,6.70
2012,03,11,14,52,6.70
2012,03,11,14,53,6.70
2012,03,11,14,54,6.70
2012,03,11,14,55,6.70
2012,03,11,14,56,6.70
2012,03,11,14,57,6.70
2012,03,11,14,58,6.70
2012,03,11,14,59,6.60
2012,03,11,15,00,6.60
2012,03,11,15,01,6.50
2012,03,11,15,02,6.50
2012,03,11,15,03,6.40
2012,03,11,15,04,6.40
2012,03,11,15,05,6.30
2012,03,11,15,06,6.20
2012,03,11,15,07,6.10
2012,03,11,15,08,6.00
2012,03,11,15,09,5.90
2012,03,11,15,10,5.80
2012,03,11,15,11,5.70
2012,03,11,15,12,5.60
2012,03,11,15,13,5.60
2012,03,11,15,14,5.50
2012,03,11,15,15,5.50
2012,03,11,15,16,5.40
2012,03,11,15,17,5.40
2012,03,11,15,18,5.30
2012,03,11,15,19,5.30
2012,03,11,15,20,5.30
2012,03,11,15,21,5.30
2012,03,11,15,22,5.30
2012,03,11,15,23,5.30
2012,03,11,15,24,5.30
2012,03,11,15,25,5.40
2012,03,11,15,26,5.40
2012,03,11,15,27,5.50
2012,03,11,15,28,5.50
2012,03,11,15,29,5.60
2012,03,11,15,30,5.60
2012,03,11,15,31,5.70
2012,03,11,15,32,5.70
2012,03,11,15,33,5.80
2012,03,11,15,34,5.80
2012,03,11,15,35,5.90
2012,03,11,15,36,5.90
2012,03,11,15,37,6.00
2012,03,11,15,38,6.10
2012,03,11,15,39,6.10
2012,03,11,15,40,6.20
2012,03,11,15,41,6.20
2012,03,11,15,42,6.20
2012,03,11,15,43,6.30
2012,03,11,15,44,6.30
2012,03,11,15,45,6.30
2012,03,11,15,46,6.30
2012,03,11,15,47,6.30
2012,03,11,15,48,6.20
2012,03,11,15,49,6.00
2012,03,11,15,50,5.80
2012,03,11,15,51,5.70
2012,03,11,15,52,5.60
2012,03,11,15,53,5.60
2012,03,11,15,54,5.50
2012,03,11,15,55,5.40
2012,03,11,15,56,5.30
2012,03,11,15,57,5.30
2012,03,11,15,58,5.20
2012,03,11,15,59,5.20
2012,03,11,16,00,5.20
2012,03,11,16,01,5.20
2012,03,11,16,02,5.10
2012,03,11,16,03,5.10
2012,03,11,16,04,5.00
2012,03,11,16,05,5.00
2012,03,11,16,06,5.10
2012,03,11,16,07,5.10
2012,03,11,16,08,5.10
2012,03,11,16,09,5.00
2012,03,11,16,10,4.90
2012,03,11,16,11,4.80
2012,03,11,16,12,4.80
2012,03,11,16,13,4.70
2012,03,11,16,14,4.70
2012,03,11,16,15,4.70
2012,03,11,16,16,4.70
2012,03,11,16,17,4.80
2012,03,11,16,18,4.80
2012,03,11,16,19,4.80
2012,03,11,16,20,4.80
2012,03,11,16,21,4.80
2012,03,11,16,22,4.90
2012,03,11,16,23,4.80
2012,03,11,16,24,4.80
2012,03,11,16,25,4.80
2012,03,11,16,26,4.80
2012,03,11,16,27,4.80
2012,03,11,16,28,4.70
2012,03,11,16,29,4.70
2012,03,11,16,30,4.80
2012,03,11,16,31,4.80
2012,03,11,16,32,4.80
2012,03,11,16,33,4.80
2012,03,11,16,34,4.80
2012,03,11,16,35,4.80
2012,03,11,16,36,4.80
2012,03,11,16,37,4.90
2012,03,11,16,38,4.90
2012,03,11,16,39,4.90
2012,03,11,16,40,4.90
2012,03,11,16,41,5.00
2012,03,11,16,42,5.00
2012,03,11,16,43,5.10
2012,03,11,16,44,5.10
2012,03,11,16,45,5.10
2012,03,11,16,46,5.10
2012,03,11,16,47,5.20
2012,03,11,16,48,5.20
2012,03,11,16,49,5.20
2012,03,11,16,50,5.30
2012,03,11,16,51,5.30
2012,03,11,16,52,5.30
2012,03,11,16,53,5.30
2012,03,11,16,54,5.30
2012,03,11,16,55,5.30
2012,03,11,16,56,5.20
2012,03,11,16,57,5.10
2012,03,11,16,58,4.90
2012,03,11,16,59,4.70
2012,03,11,17,00,4.60
2012,03,11,17,01,4.50
2012,03,11,17,02,4.40
2012,03,11,17,03,4.30
2012,03,11,17,04,4.20
2012,03,11,17,05,4.00
2012,03,11,17,06,3.90
2012,03,11,17,07,3.80
2012,03,11,17,08,3.70
2012,03,11,17,09,3.70
2012,03,11,17,10,3.60
2012,03,11,17,11,3.60
2012,03,11,17,12,3.50
2012,03,11,17,13,3.50
2012,03,11,17,14,3.40
2012,03,11,17,15,3.40
2012,03,11,17,16,3.30
2012,03,11,17,17,3.20
2012,03,11,17,18,3.20
2012,03,11,17,19,3.20
2012,03,11,17,20,3.30
2012,03,11,17,21,3.30
2012,03,11,17,22,3.40
2012,03,11,17,23,3.40
2012,03,11,17,24,3.50
2012,03,11,17,25,3.50
2012,03,11,17,26,3.60
2012,03,11,17,27,3.60
2012,03,11,17,28,3.70
2012,03,11,17,29,3.80
2012,03,11,17,30,3.80
2012,03,11,17,31,3.80
2012,03,11,17,32,3.90
2012,03,11,17,33,3.90
2012,03,11,17,34,3.90
2012,03,11,17,35,3.90
2012,03,11,17,36,3.90
2012,03,11,17,37,3.90
2012,03,11,17,38,3.90
2012,03,11,17,39,3.80
2012,03,11,17,40,3.80
2012,03,11,17,41,3.80
2012,03,11,17,42,3.80
2012,03,11,17,43,3.80
2012,03,11,17,44,3.80
2012,03,11,17,45,3.80
2012,03,11,17,46,3.80
2012,03,11,17,47,3.80
2012,03,11,17,48,3.80
2012,03,11,17,49,3.80
2012,03,11,17,50,3.80
2012,03,11,17,51,3.80
2012,03,11,17,52,3.80
2012,03,11,17,53,3.80
2012,03,11,17,54,3.80
2012,03,11,17,55,3.80
2012,03,11,17,56,3.90
2012,03,11,17,57,3.90
2012,03,11,17,58,3.90
2012,03,11,17,59,3.90
2012,03,11,18,00,3.90
2012,03,11,18,01,3.90
2012,03,11,18,02,3.90
2012,03,11,18,03,3.90
2012,03,11,18,04,4.00
2012,03,11,18,05,4.00
2012,03,11,18,06,4.00
2012,03,11,18,07,4.10
2012,03,11,18,08,4.10
2012,03,11,18,09,4.10
2012,03,11,18,10,4.10
2012,03,11,18,11,4.10
2012,03,11,18,12,4.10
2012,03,11,18,13,4.10
2012,03,11,18,14,4.10
2012,03,11,18,15,4.20
2012,03,11,18,16,4.20
2012,03,11,18,17,4.20
2012,03,11,18,18,4.20
2012,03,11,18,19,4.30
2012,03,11,18,20,4.30
2012,03,11,18,21,4.30
2012,03,11,18,22,4.30
2012,03,11,18,23,4.30
2012,03,11,18,24,4.30
2012,03,11,18,25,4.30
2012,03,11,18,26,4.30
2012,03,11,18,27,4.30
2012,03,11,18,28,4.30
2012,03,11,18,29,4.30
2012,03,11,18,30,4.40
2012,03,11,18,31,4.40
2012,03,11,18,32,4.40
2012,03,11,18,33,4.40
2012,03,11,18,34,4.40
2012,03,11,18,35,4.40
2012,03,11,18,36,4.40
2012,03,11,18,37,4.40
2012,03,11,18,38,4.40
2012,03,11,18,39,4.40
2012,03,11,18,40,4.40
2012,03,11,18,41,4.40
2012,03,11,18,42,4.30
2012,03,11,18,43,4.30
2012,03,11,18,44,4.30
2012,03,11,18,45,4.30
2012,03,11,18,46,4.30
2012,03,11,18,47,4.30
2012,03,11,18,48,4.30
2012,03,11,18,49,4.30
2012,03,11,18,50,4.20
2012,03,11,18,51,4.20
2012,03,11,18,52,4.10
2012,03,11,18,53,4.10
2012,03,11,18,54,4.00
2012,03,11,18,55,3.90
2012,03,11,18,56,3.80
2012,03,11,18,57,3.80
2012,03,11,18,58,3.70
2012,03,11,18,59,3.60
2012,03,11,19,00,3.50
2012,03,11,19,01,3.40
2012,03,11,19,02,3.40
2012,03,11,19,03,3.30
2012,03,11,19,04,3.30
2012,03,11,19,05,3.20
2012,03,11,19,06,3.20